Regional Weather Roundup
Issued by NWS

Home | Current Version | Previous Version | Text Only | Print | Product List | Glossary On
Versions: 1 2 3 4 5 6 7 8 9 10 11 12 13 14 15 16 17 18 19 20 21 22 23 24 25 26 27 28 29 30 31 32 33 34 35 36 37 38 39 40 41 42 43 44 45 46 47 48 49 50
000
ASUS43 KFSD 280110
RWRSD

WEATHER ROUNDUP FOR SOUTH DAKOTA
NATIONAL WEATHER SERVICE SIOUX FALLS SD
800 PM CDT MON MAR 27 2017

NOTE: "FAIR" INDICATES FEW OR NO CLOUDS BELOW 12,000 FEET WITH NO
SIGNIFICANT WEATHER AND/OR OBSTRUCTIONS TO VISIBILITY.


SDZ001>005-009-010-012>017-280200-
NORTHWEST AND NORTH CENTRAL SOUTH DAKOTA

CITY           SKY/WX    TMP DP  RH WIND       PRES   REMARKS
BUFFALO          N/A     55  33  43 SE10      29.83R
FAITH            N/A     51  37  58 MISG      29.90R
MOBRIDGE       CLEAR     54  36  50 SE3       29.90R
$$

SDZ012>016-024>037-041>051-057-063-072>074-280200-
SOUTHWEST AND SOUTH CENTRAL SOUTH DAKOTA

CITY           SKY/WX    TMP DP  RH WIND       PRES   REMARKS
RAPID CTY ARPT CLEAR     52  35  52 E10       29.86R
PIERRE         PTCLDY    53  31  42 E7        29.89R
CUSTER         CLEAR     45  30  55 E8        29.88R
ELLSWORTH AFB  CLEAR     55  36  48 CALM      29.86R
PHILIP         MOCLDY    56  36  47 E10       29.87R
PINE RIDGE     CLEAR     57  39  51 E14       29.83R
SPEARFISH      FAIR      48  41  76 SE12      29.87R
WINNER         CLOUDY    57  37  47 E10       29.88R
$$

SDZ004>011-016>023-039-040-280200-
NORTHEAST SOUTH DAKOTA

CITY           SKY/WX    TMP DP  RH WIND       PRES   REMARKS
ABERDEEN       MOCLDY    53  35  50 S5        29.95R
WATERTOWN      CLOUDY    51  36  56 E6        29.96R
BROOKINGS      CLOUDY    53  37  54 E7        29.95R
SISSETON         N/A     50  38  63 S3        29.96R
$$

SDZ017-020-022-023-036>040-048>070-280200-
SOUTHEAST SOUTH DAKOTA

CITY           SKY/WX    TMP DP  RH WIND       PRES   REMARKS
SIOUX FALLS    MOCLDY    52  39  61 SE12      29.95R
HURON          PTCLDY    54  36  50 E5        29.93R
CHAMBERLAIN    PTCLDY    55  34  45 E5        29.91R
MITCHELL       CLEAR     53  34  48 SE6       29.94R
YANKTON        CLEAR     54  39  58 E8        29.94R
$$

ABBREVIATIONS USED IN REMARKS
   TC - TEMPERATURE IN CELSIUS
  WCI - WIND CHILL INDEX
   HX - HEAT INDEX
  VSB - VISIBILITY





USA.gov is the U.S. government's official web portal to all federal, state and local government web resources and services.